Weather History for Manchester, NH

Change the Weather History Date:

Sunday, April 21, 2013

  Actual Average Record
Temperature  
Mean Temperature 44 °F -  
Max Temperature 54 °F 60 °F 83 °F (1954)
Min Temperature 35 °F 36 °F 21 °F (1994)
Degree Days  
Heating Degree Days 21    
Moisture  
Dew Point 16 °F    
Average Humidity 36    
Maximum Humidity 60    
Minimum Humidity 16    
Precipitation  
Precipitation 0.00 in - - ()
Sea Level Pressure  
Sea Level Pressure 30.54 in    
Wind  
Wind Speed 8 mph (NW)    
Max Wind Speed 15 mph    
Max Gust Speed 24 mph    
Visibility 10 miles    
Events      
Averages and records for this station are not official NWS values.
T = Trace of Precipitation, MM = Missing Value Source: NWS Daily Summary

Daily Weather History Graph

Daily Weather History Graph

Search for Another Location

Airport:

Trip Planner

Search our weather history database for the weather conditions in past years. The results will help you decide how hot, cold, wet, or windy it might be!

Date:

Astronomy

Apr. 21, 2013 Rise Set
Actual Time 5:54 AM EDT 7:35 PM EDT
Civil Twilight 5:24 AM EDT 8:05 PM EDT
Nautical Twilight 4:47 AM EDT 8:42 PM EDT
Astronomical Twilight 4:08 AM EDT 9:21 PM EDT
Moon 3:11 PM EDT (4/21) 3:21 AM EDT (4/21)
Length of Visible Light 14h 41m
Length of Day
13h 41m
Waxing Gibbous, 79% of the Moon is Illuminated
Apr 21
Waxing Gibbous
Apr 25
Full
May 2
Last Quarter
May 9
New
May 18
First Quarter

Hourly Weather History & Observations

Time (EDT) Temp. Windchill Dew Point Humidity Pressure Visibility Wind Dir Wind Speed Gust Speed Precip Events Conditions
12:53 AM 39.9 °F 33.4 °F 17.1 °F 40% 30.30 in 10.0 mi NW 10.4 mph 18.4 mph N/A   Clear
1:53 AM 37.9 °F 30.5 °F 15.1 °F 39% 30.31 in 10.0 mi WNW 11.5 mph 21.9 mph N/A   Clear
2:53 AM 37.9 °F 32.7 °F 15.1 °F 39% 30.34 in 10.0 mi WNW 6.9 mph - N/A   Clear
3:53 AM 36.0 °F 33.3 °F 16.0 °F 44% 30.36 in 10.0 mi West 3.5 mph - N/A   Clear
4:53 AM 35.1 °F 31.0 °F 17.1 °F 48% 30.39 in 10.0 mi WNW 4.6 mph - N/A   Scattered Clouds
5:53 AM 35.1 °F 32.2 °F 19.0 °F 52% 30.43 in 10.0 mi NW 3.5 mph - N/A   Clear
6:53 AM 36.0 °F 32.1 °F 18.0 °F 48% 30.48 in 10.0 mi NW 4.6 mph - N/A   Clear
7:53 AM 37.9 °F 29.6 °F 17.1 °F 43% 30.51 in 10.0 mi NW 13.8 mph 18.4 mph N/A   Clear
8:53 AM 39.9 °F 32.5 °F 18.0 °F 41% 30.54 in 10.0 mi NNW 12.7 mph 20.7 mph N/A   Scattered Clouds
9:53 AM 39.9 °F 32.9 °F 14.0 °F 35% 30.56 in 10.0 mi NW 11.5 mph 19.6 mph N/A   Clear
10:53 AM 43.0 °F 36.8 °F 15.1 °F 32% 30.57 in 10.0 mi WNW 11.5 mph 19.6 mph N/A   Clear
11:53 AM 45.0 °F 41.8 °F 16.0 °F 31% 30.58 in 10.0 mi WNW 5.8 mph 16.1 mph N/A   Clear
12:53 PM 46.9 °F - 15.1 °F 28% 30.58 in 10.0 mi NW 10.4 mph 24.2 mph N/A   Clear
1:53 PM 50.0 °F - 12.0 °F 22% 30.57 in 10.0 mi North 15.0 mph 21.9 mph N/A   Clear
2:53 PM 52.0 °F - 12.9 °F 21% 30.57 in 10.0 mi NNW 8.1 mph - N/A   Clear
3:53 PM 52.0 °F - 12.9 °F 21% 30.57 in 10.0 mi North 9.2 mph - N/A   Clear
4:53 PM 53.1 °F - 9.0 °F 17% 30.58 in 10.0 mi NE 12.7 mph - N/A   Clear
5:53 PM 53.1 °F - 8.1 °F 16% 30.59 in 10.0 mi North 12.7 mph - N/A   Clear
6:53 PM 51.1 °F - 8.1 °F 18% 30.61 in 10.0 mi North 10.4 mph - N/A   Clear
7:53 PM 50.0 °F - 10.0 °F 20% 30.63 in 10.0 mi NNW 4.6 mph - N/A   Clear
8:53 PM 46.0 °F 41.9 °F 21.9 °F 39% 30.67 in 10.0 mi ESE 8.1 mph - N/A   Clear
9:53 PM 44.1 °F - 25.0 °F 47% 30.69 in 10.0 mi Calm Calm - N/A   Clear
10:53 PM 41.0 °F - 26.1 °F 55% 30.71 in 10.0 mi Calm Calm - N/A   Clear
11:53 PM 39.0 °F - 26.1 °F 60% 30.72 in 10.0 mi Calm Calm - N/A   Clear